Location: Maignaut
(43.8886°N, 0.4051°E)
Time: 19:02:51
(UTC+00:00)

Cosmos 2263 Rocket - Pass Details

Date: 17 January 2021
Orbit: 825 x 847 km, 71.0° (Epoch: 28 February)

Event Time Altitude Azimuth Distance (km) Brightness Sun altitude
Rises 18:02:47 0° 210° (SSW) 3,395 6.1 -13.1°
Reaches altitude 10° 18:05:14 10° 212° (SSW) 2,463 5.3 -13.5°
Maximum altitude 18:10:52 71° 296° (WNW) 895 2.5 -14.5°
Drops below altitude 10° 18:16:33 10° 21° (NNE) 2,470 4.3 -15.5°
Enters shadow 18:17:24 - 22° (NNE) 2,793 4.6 -15.6°
